[Iaude] MPEC J168: 2017 ES51 [a=71.07,e=0.59,i=13.7,H=9.20]

mpec at cfa.harvard.edu mpec at cfa.harvard.edu
Wed May 8 12:00:45 EDT 2024


M.P.E.C. 2024-J168                                  Issued 2024 May 8, 15:59 UT

     The Minor Planet Electronic Circulars contain information on unusual
         minor planets, routine data on comets and natural satellites,
         and occasional editorial announcements.  They are published
    on behalf of Division F of the International Astronomical Union by the
          Minor Planet Center, Smithsonian Astrophysical Observatory,
                          Cambridge, MA 02138, U.S.A.
			  
             Prepared using the Tamkin Foundation Computer Network

                              MPC at CFA.HARVARD.EDU
            URL https://www.minorplanetcenter.net/    ISSN 1523-6714

                                   2017 ES51                                    


Additional Observations:
     K17E51S 1C2015 03 22.37998209 19 45.98 +01 07 18.6          23.2 iWEJ168T09
     K17E51S 1C2015 03 22.42498209 19 45.79 +01 07 20.4                WEJ168T09
     K17E51S 1C2015 03 22.45632109 19 45.67 +01 07 21.6                WEJ168T09
     K17E51S 4C2018 01 17.52652 09 59 14.37 -01 49 52.7          23.5 i1EJ168T09
     K17E51S 4C2018 01 17.55074 09 59 14.24 -01 49 52.6          23.5 i1EJ168T09
     K17E51S 4C2018 01 17.55341 09 59 14.21 -01 49 52.4          22.9 i1EJ168T09
     K17E51S &C2018 12 13.24963710 12 20.46 -02 35 13.3                WEJ168W84

Observer details:
T09 Subaru Telescope, Maunakea.  Observers , H. Aihara, Y. AlSayyad, M. Ando,
    R. Armstrong, J. Bosch, E. Egami, H. Furusawa, J. Furusawa, S. Harasawa,
    Y. Harikane, B.-C. Hsieh, H. Ikeda, K. Ito, I. Iwata, T. Kodama, M. Koike,
    M. Kokubo, Y. Komiyama, X. Li, Y. Liang, Y.-T. Lin, R. H. Lupton, N. B.
    Lust, L. A. MacArthur, K. Mawatari, S. Mineo, H. Miyatake, S. Miyazaki, S.
    More, T. Morishima, H. Murayama, K. Nakajima, F. Nakata, A. J. Nishizawa,
    M. Oguri, N. Okabe, Y. Okura, Y. Ono, K. Osato, M. Ouchi, Y.-C. Pan, A. A.
    Plazas Malagon, P. A. Price, S. L. Reed, E. S. Rykoff, T. Shibuya, M.
    Simunovic, M. A. Strauss, K. Sugimori, Y. Suto, N. Suzuki, M. Takada, Y.
    Takagi, T. Takata, S. Takita, M. Tanaka, S. Tang, D. S. Taranu, T. Terai,
    Y. Toba, E. L. Turner, H. Uchiyama, B. Vijarnwannaluk, C. Z. Waters, Y.
    Yamada, N. Yamamoto, T. Yamashita.  Measurers S. Deen, A. Yamauchi.  8.3-m
    Subaru Telescope + CCD, 8.2-m f/2.0 reflector + CCD(HSC).
W84 Cerro Tololo-DECam.  Observer S. Gontcho.  Measurer S. Deen.  4.0-m
    reflector + CCD.

Orbital elements:
2017 ES51                                                                       
Epoch 2024 Mar. 31.0 TT = JDT 2460400.5                 Alexandersen            
M   1.36670              (2000.0)            P               Q                  
n   0.00164516     Peri.  301.01598     -0.93610276     -0.31515072             
a  71.0664011      Node   221.19748     +0.34422576     -0.91208335             
e   0.5913315      Incl.   13.71641     -0.07225125     -0.26226700             
P 599              H    9.20          G   0.15           U   6                  
Residuals in seconds of arc
150322 T09  0.0   0.0     170126 T09  0.0   0.2-    170304 T09  0.2+  0.1+
150322 T09  0.1-  0.0     170126 T09  0.1+  0.1+    170306 T09  0.1-  0.2+
150322 T09  0.0   0.0     170128 T09  0.1+  0.1+    170306 T09  0.1+  0.1+
170126 T09  0.2-  0.1-    170128 T09  0.1-  0.2-    170306 T09  0.2+  0.0
170126 T09  0.0   0.0     170128 T09  0.1+  0.1-    180117 T09  0.0   0.1+
170126 T09  0.1+  0.2-    170128 T09  0.1-  0.1+    180117 T09  0.1-  0.1-
170126 T09  0.1-  0.4-    170304 T09  0.1-  0.1+    180117 T09  0.3-  0.1+
170126 T09  0.0   0.2-    170304 T09  0.0   0.0     181213 W84  0.2+  0.0

Ephemeris:
2017 ES51                a,e,i = 71.07, 0.59, 14                 q = 29.0426
Date    TT    R. A. (2000) Decl.     Delta      r    Elong.  Phase     V
2024 04 08    11 00 54.7 -05 47 10  28.2569 29.1154   148.5     1.0    23.9
...
2024 04 23    10 59 55.8 -05 35 56  28.4069 29.1180   134.3     1.4    24.0
...
2024 05 01    10 59 33.5 -05 30 26  28.5066 29.1194   126.7     1.6    24.0
...
2024 05 07    10 59 21.5 -05 26 37  28.5889 29.1205   120.9     1.7    24.0
2024 05 08    10 59 19.8 -05 26 01  28.6032 29.1207   120.0     1.7    24.0
2024 05 09    10 59 18.4 -05 25 25  28.6176 29.1209   119.0     1.7    24.0
...
2024 05 15    10 59 12.0 -05 22 03  28.7069 29.1220   113.3     1.8    24.0
...
2024 05 23    10 59 10.3 -05 18 09  28.8323 29.1234   105.8     1.9    24.1
...
2024 06 07    10 59 28.6 -05 12 55  29.0789 29.1262    91.7     2.0    24.1

M. P. C. Staff               (C) Copyright 2024 MPC           M.P.E.C. 2024-J168





More information about the Iaude mailing list